Simultaneous Nadir Overpasses (SNOs) Predictions

Prediction of SNOs between FY3D and METOP-A Satellite Orbit:

Table of predicted SNOs for the next 14.0 days since TLE Epoch: 7/17/2021
Index Date (FY3D) Time (FY3D) Lat,Lon (FY3D) SZA (FY3D ) Date (METOP-A) Time (METOP-A) Lat,Lon (METOP-A) SZA (METOP-A ) Distance(km) Time Diff (sec)
1 07/17/2021 14:28:08 77.63, -56.90 57.42 07/17/2021 14:29:15 77.57, -54.05 57.12 68.44 67
2 07/17/2021 15:18:49 -77.49, 111.08 122.76 07/17/2021 15:19:59 -77.46, 112.77 122.95 40.90 70
3 07/17/2021 16:09:29 77.30, -80.73 57.00 07/17/2021 16:10:43 77.29, -80.59 56.96 3.36 74
4 07/17/2021 17:00:13 -77.28, 86.65 123.02 07/17/2021 17:01:25 -77.26, 86.61 123.06 2.61 72
5 07/17/2021 17:50:57 77.26,-105.92 56.96 07/17/2021 17:52:05 77.27,-106.01 56.96 2.89 68
6 07/17/2021 18:41:42 -77.29, 61.27 123.00 07/17/2021 18:42:46 -77.29, 61.37 123.03 2.36 64
7 07/17/2021 19:32:26 77.26,-131.30 56.98 07/17/2021 19:33:27 77.25,-131.44 56.96 3.36 61
8 07/17/2021 20:23:11 -77.29, 35.89 122.99 07/17/2021 20:24:08 -77.27, 35.95 123.03 2.76 57
9 07/17/2021 21:13:55 77.26,-156.68 56.99 07/17/2021 21:14:48 77.28,-156.68 56.99 1.70 53
10 07/17/2021 22:04:39 -77.25, 10.70 123.03 07/17/2021 22:05:30 -77.25, 10.52 123.03 4.22 51
11 07/17/2021 22:55:24 77.27, 177.93 57.01 07/17/2021 22:56:10 77.26, 177.90 56.99 1.12 46
12 07/17/2021 23:46:08 -77.25, -14.69 123.01 07/17/2021 23:46:51 -77.27, -14.72 123.00 2.42 43
13 07/18/2021 00:36:53 77.27, 152.55 57.02 07/18/2021 00:37:31 77.28, 152.66 57.02 3.13 38
14 07/18/2021 01:27:37 -77.25, -40.07 122.99 07/18/2021 01:28:13 -77.25, -40.14 123.00 1.76 36
15 07/18/2021 02:18:22 77.27, 127.17 57.04 07/18/2021 02:18:53 77.26, 127.24 57.02 1.90 31
16 07/18/2021 03:09:06 -77.26, -65.45 122.98 07/18/2021 03:09:34 -77.28, -65.38 122.97 2.84 28
17 07/18/2021 03:59:51 77.27, 101.79 57.06 07/18/2021 04:00:15 77.24, 101.82 57.02 3.42 24
18 07/18/2021 04:50:35 -77.26, -90.83 122.96 07/18/2021 04:50:56 -77.26, -90.80 122.97 0.75 21
19 07/18/2021 05:41:19 77.23, 76.59 57.02 07/18/2021 05:41:36 77.27, 76.58 57.04 3.84 17
20 07/18/2021 06:32:04 -77.26,-116.21 122.95 07/18/2021 06:32:18 -77.24,-116.22 122.97 2.66 14
21 07/18/2021 07:22:48 77.24, 51.21 57.03 07/18/2021 07:22:58 77.25, 51.15 57.05 1.95 10
22 07/18/2021 08:13:33 -77.26,-141.59 122.93 07/18/2021 08:13:39 -77.26,-141.46 122.94 3.20 6
23 07/18/2021 09:04:17 77.24, 25.83 57.05 07/18/2021 09:04:20 77.23, 25.73 57.05 2.68 3
24 07/18/2021 09:55:01 -77.22,-166.79 122.97 07/18/2021 09:55:01 -77.24,-166.89 122.94 3.15 0
25 07/18/2021 10:45:46 77.24, 0.45 57.07 07/18/2021 10:45:41 77.25, 0.49 57.07 1.64 5
26 07/18/2021 11:36:30 -77.23, 167.83 122.95 07/18/2021 11:36:23 -77.22, 167.69 122.94 3.39 7
27 07/18/2021 12:27:15 77.25, -24.93 57.08 07/18/2021 12:27:03 77.23, -24.93 57.07 1.24 12
28 07/18/2021 13:17:59 -77.23, 142.45 122.94 07/18/2021 13:17:44 -77.25, 142.45 122.92 2.02 15
29 07/18/2021 14:08:44 77.25, -50.32 57.10 07/18/2021 14:08:24 77.26, -50.17 57.10 3.73 20
30 07/18/2021 14:59:28 -77.23, 117.07 122.92 07/18/2021 14:59:06 -77.23, 117.03 122.91 1.00 22
31 07/18/2021 15:50:13 77.25, -75.70 57.11 07/18/2021 15:49:46 77.24, -75.59 57.10 2.87 27
32 07/18/2021 16:40:57 -77.24, 91.69 122.90 07/18/2021 16:40:27 -77.25, 91.79 122.89 3.24 30
33 07/18/2021 17:31:41 77.21,-100.89 57.07 07/18/2021 17:31:08 77.22,-101.02 57.10 3.18 33
34 07/18/2021 18:22:26 -77.24, 66.30 122.89 07/18/2021 18:21:49 -77.23, 66.37 122.89 1.65 37
35 07/18/2021 19:13:10 77.21,-126.28 57.09 07/18/2021 19:12:29 77.24,-126.26 57.13 3.40 41
36 07/18/2021 20:03:55 -77.24, 40.92 122.87 07/18/2021 20:03:11 -77.21, 40.95 122.88 3.00 44
37 07/18/2021 20:54:39 77.22,-151.66 57.11 07/18/2021 20:53:51 77.22,-151.68 57.13 1.04 48
38 07/18/2021 21:45:24 -77.24, 15.54 122.86 07/18/2021 21:44:32 -77.24, 15.71 122.86 4.08 52
39 07/18/2021 22:36:08 77.22,-177.04 57.12 07/18/2021 22:35:13 77.20,-177.10 57.13 2.23 55
40 07/18/2021 23:26:52 -77.20, -9.65 122.89 07/18/2021 23:25:54 -77.22, -9.72 122.85 2.33 58
41 07/19/2021 00:17:37 77.22, 157.58 57.14 07/19/2021 00:16:34 77.23, 157.66 57.16 2.10 63
42 07/19/2021 01:08:21 -77.21, -35.04 122.88 07/19/2021 01:07:16 -77.20, -35.14 122.85 2.59 65
43 07/19/2021 01:59:06 77.22, 132.20 57.16 07/19/2021 01:57:56 77.21, 132.24 57.16 1.95 70
44 07/19/2021 02:49:50 -77.21, -60.42 122.86 07/19/2021 02:48:37 -77.22, -60.38 122.83 1.98 73
45 07/19/2021 03:40:33 77.14, 107.19 57.06 07/19/2021 03:39:20 77.10, 106.46 57.11 18.67 73
46 07/19/2021 04:31:14 -77.00, -84.88 123.12 07/19/2021 04:30:03 -77.03, -86.51 122.93 40.78 71
47 07/19/2021 05:21:54 76.80, 83.25 56.64 07/19/2021 05:20:48 76.81, 79.99 56.96 82.65 66



Historial Predications of SNOs between FY3D and METOP-A
